Theta_e
318 320 320 321 319 319 320 321 319 320 321 319 319 319 318 318 318 320 328 331 331 336 337 336 338 340 341 342 341 339 338 336 337 333 338 337 333 334 335 336 336 335 334 336 333 329 326 326 325
315 319 320 317 319 319 317 319 320 320 319 318 318 319 319 319 320 324 326 328 332 334 336 335 338 340 340 340 340 337 339 339 337 337 338 337 337 334 336 337 335 334 334 334 330 323 322 322 322
319 320 316 317 317 317 317 317 318 317 317 319 318 319 319 319 319 325 329 328 331 334 335 335 337 339 339 337 339 339 338 338 337 338 337 336 335 333 333 334 333 332 331 332 328 322 319 317 318
319 318 313 314 319 317 317 316 317 317 318 318 317 317 317 319 321 325 326 327 332 334 337 335 337 340 339 338 338 337 337 338 336 336 335 334 333 332 331 332 332 331 330 329 325 321 316 313 311
319 312 315 318 318 317 316 317 317 318 318 317 317 317 315 319 322 321 324 326 330 333 340 338 337 339 340 338 338 333 332 335 337 336 333 334 331 329 330 330 330 330 329 326 324 318 312 305 302
315 310 314 317 317 315 317 317 318 318 317 316 317 316 317 319 319 323 325 326 328 330 339 340 339 339 339 339 337 335 331 334 336 334 334 333 330 329 328 329 328 329 328 324 322 315 304 300 300
318 314 317 318 317 317 318 317 317 316 314 316 316 316 316 316 319 321 327 327 329 329 333 337 340 340 339 339 337 336 335 332 331 334 335 333 331 328 328 327 327 328 325 322 318 306 301 300 299
314 313 318 315 316 317 316 317 316 316 315 316 315 313 317 317 319 319 324 328 330 329 330 332 336 339 339 340 339 338 336 335 332 334 335 332 331 328 326 325 326 326 322 321 316 308 301 300 299
315 313 314 317 316 315 314 315 314 314 316 314 315 314 314 319 318 318 321 323 327 330 330 331 331 334 335 339 339 338 336 335 334 334 336 332 331 329 325 324 324 323 320 320 315 305 300 299 298
314 314 316 316 314 316 314 314 313 313 312 312 312 312 315 317 317 318 320 321 323 328 330 331 332 333 333 334 338 337 335 334 334 335 335 331 330 328 327 322 321 320 319 318 315 308 300 298 298
317 316 317 317 317 316 316 314 314 314 313 312 312 312 311 315 315 315 316 319 320 320 324 330 332 332 334 333 331 331 332 333 335 336 334 332 330 328 326 323 319 317 317 316 314 308 300 300 301
318 316 316 316 316 314 316 316 315 314 314 312 311 311 311 310 310 313 314 316 317 319 322 323 329 332 333 334 334 333 332 332 334 334 331 330 328 327 325 322 317 315 315 314 310 305 299 299 301
315 314 316 314 313 313 313 314 315 314 312 311 311 311 310 309 310 313 314 315 316 316 317 321 326 330 332 333 334 333 334 333 333 333 330 329 328 326 325 322 318 316 314 314 310 306 300 299 300
313 313 313 313 313 312 313 312 314 312 310 310 310 309 308 308 309 311 311 314 314 316 317 317 323 326 329 332 334 333 332 332 332 331 329 327 328 326 326 321 318 316 314 313 312 306 301 299 299
313 313 312 312 312 312 311 314 313 311 309 309 309 308 307 307 307 306 307 308 309 312 313 316 317 324 327 329 331 333 332 331 330 330 328 327 329 325 325 322 318 316 314 313 311 308 304 299 298
313 312 313 313 313 313 312 312 312 310 309 310 310 308 308 305 305 304 305 305 307 310 312 314 317 320 327 328 329 331 331 330 330 329 330 329 326 324 323 322 319 315 314 314 311 308 305 300 298
312 311 312 313 313 313 312 311 311 310 309 309 309 307 306 304 303 303 303 303 304 306 308 311 315 320 324 326 327 328 329 329 328 328 329 328 327 327 325 323 319 315 315 314 312 309 304 299 298
313 312 313 313 313 312 312 310 310 309 309 310 309 306 304 303 302 302 301 301 302 304 305 307 311 316 321 325 325 325 326 327 326 326 326 327 326 326 324 320 317 314 314 313 310 308 301 299 299
312 313 313 312 312 311 311 311 311 310 310 310 306 304 304 303 303 302 300 300 300 301 302 303 305 308 314 318 320 321 322 324 324 324 323 324 324 322 322 318 315 313 312 311 309 306 300 299 298
313 313 312 311 312 312 311 311 310 311 308 306 305 304 303 303 302 301 299 299 298 298 299 301 303 304 307 309 312 315 318 319 320 321 321 320 319 318 319 318 313 311 310 309 308 305 300 298 297
314 313 313 313 311 309 309 308 309 307 306 306 304 303 303 302 301 299 299 298 297 296 297 298 299 301 303 305 308 309 311 311 310 312 317 317 316 316 315 315 314 309 307 307 306 304 300 298 297
313 311 311 312 310 310 308 310 309 308 307 305 303 301 300 300 299 299 298 297 296 296 296 296 297 298 299 301 302 302 301 301 302 304 307 310 311 313 312 312 312 310 307 305 304 303 300 298 298
312 310 310 310 310 310 310 310 309 308 309 306 303 302 300 299 299 298 297 296 296 295 295 295 296 296 296 297 297 298 298 298 299 300 302 302 304 306 307 308 308 307 306 303 302 301 299 298 297
309 310 309 308 308 312 311 311 313 309 308 306 304 302 301 299 298 297 297 296 295 295 293 293 293 293 294 294 295 295 295 296 297 297 297 298 299 301 302 302 302 303 305 304 302 301 299 298 297
309 309 314 315 312 315 315 316 314 312 306 306 303 301 299 298 297 295 295 295 294 293 292 291 290 291 292 292 291 293 293 293 293 293 294 295 295 296 296 297 299 300 300 300 302 301 300 298 298
309 311 315 317 319 316 313 317 316 306 305 303 301 300 299 297 297 296 295 294 294 293 292 290 289 289 289 290 289 289 288 288 288 288 288 291 292 292 293 294 296 296 297 299 299 300 300 299 298
315 316 315 316 313 311 314 313 308 306 304 302 300 298 297 297 297 296 294 293 292 292 291 290 288 287 287 288 288 287 287 286 286 286 286 285 285 286 288 291 293 294 295 295 296 297 298 298 298
314 313 315 315 313 312 312 311 310 309 306 303 299 298 296 295 295 295 294 292 291 291 290 289 288 287 286 286 286 286 286 286 285 284 284 284 285 284 285 285 285 288 292 292 293 294 295 295 295
308 311 313 314 314 315 310 309 310 310 306 303 299 298 296 295 294 292 293 291 290 289 288 288 287 287 286 286 285 285 285 285 285 284 284 284 284 284 284 284 284 284 284 286 290 292 292 293 293
309 311 310 315 313 311 313 313 307 306 303 300 300 298 295 293 290 290 291 292 291 289 288 287 287 287 286 286 285 285 285 284 284 284 284 284 284 284 284 284 284 283 283 284 284 285 287 290 290
Wind_Speed
7 7 10 4 4 5 4 2 3 5 3 1 0 2 3 2 3 3 7 16 11 20 24 28 27 26 26 24 21 18 15 13 14 12 11 10 10 11 9 10 9 6 5 5 3 2 4 5 6
6 7 2 2 4 3 5 3 4 4 4 1 2 1 1 2 3 5 8 14 11 21 22 29 27 25 25 23 21 19 17 14 13 14 12 10 10 12 10 9 7 5 3 3 2 3 4 4 4
7 5 3 3 3 3 2 2 3 3 3 2 3 1 1 2 3 10 5 14 14 21 19 27 27 26 24 23 21 21 20 18 15 16 15 12 9 9 13 9 7 6 4 5 3 2 1 1 2
5 5 4 4 2 3 3 1 3 3 2 3 3 4 4 2 4 7 10 12 17 18 19 24 27 24 24 23 22 21 22 19 16 16 14 11 10 9 9 10 9 8 6 6 4 3 2 2 3
2 3 3 2 4 2 4 4 2 0 2 2 3 4 5 3 9 9 10 12 18 18 18 18 26 25 24 23 22 21 21 20 19 17 14 11 10 9 9 9 9 8 7 6 6 4 4 3 3
4 3 4 1 5 5 2 4 2 2 3 3 2 1 1 6 6 9 10 12 16 20 18 18 21 25 25 24 22 21 21 21 21 18 16 18 14 11 9 9 9 10 9 8 7 5 4 4 6
2 3 3 2 4 5 2 0 3 1 4 0 2 0 1 2 5 9 9 10 16 19 21 20 22 24 26 25 25 23 21 20 20 20 19 20 16 13 11 10 10 11 10 10 8 6 6 7 8
3 3 2 3 2 4 4 2 4 2 5 1 1 2 3 5 12 9 9 11 14 19 22 22 23 25 26 27 25 24 23 21 20 21 21 21 18 15 12 11 12 12 11 11 9 8 8 8 8
3 4 2 4 5 6 6 5 6 3 2 2 3 5 6 9 12 10 10 12 14 18 23 24 24 24 26 30 29 26 25 24 22 23 23 22 20 18 16 14 15 13 12 12 11 10 9 8 8
4 3 5 2 1 3 4 1 3 5 7 6 6 7 1 12 10 11 12 15 18 20 22 26 25 25 23 30 32 30 28 27 25 25 25 24 21 19 17 15 16 16 16 14 12 11 9 9 9
4 5 3 7 5 3 3 7 4 5 6 8 9 7 6 11 14 16 18 21 23 20 24 26 27 26 25 26 30 30 30 28 27 27 27 24 21 20 18 17 18 18 18 17 14 13 11 10 9
3 8 7 5 4 5 4 1 8 5 13 10 11 9 6 11 7 18 21 22 22 22 27 27 30 29 29 28 28 28 30 31 30 29 28 26 24 21 21 21 20 21 21 19 17 14 13 11 9
4 4 3 7 8 8 6 5 7 9 14 12 14 11 12 10 12 16 18 21 19 24 25 27 30 32 31 32 31 30 30 31 33 32 30 29 28 25 24 24 23 22 22 21 20 17 16 14 13
4 5 6 6 10 8 6 7 5 9 7 11 10 10 9 8 9 14 17 20 19 22 25 26 30 33 32 33 32 31 29 30 30 31 34 30 31 27 28 27 26 24 24 23 21 20 18 16 15
3 5 7 11 7 6 5 3 8 13 8 8 9 8 8 9 23 20 24 23 20 19 16 23 25 30 34 33 32 32 29 26 26 28 30 31 33 29 31 30 28 26 25 24 24 22 19 19 18
4 1 3 6 5 3 2 6 9 11 6 11 13 9 8 12 17 23 25 25 26 23 20 7 19 22 31 30 28 29 29 26 25 26 27 28 31 30 31 31 29 27 26 26 27 25 23 22 21
2 3 5 7 2 3 4 6 9 9 9 11 10 8 10 11 19 25 26 27 27 27 26 18 4 14 22 25 24 24 24 22 23 21 23 25 28 30 32 30 27 27 28 29 28 27 26 26 23
5 4 4 6 6 6 5 10 9 11 10 12 5 7 11 13 14 22 26 29 30 28 28 27 22 4 8 16 16 14 17 20 17 20 20 22 25 28 29 27 26 28 29 29 29 28 27 26 23
3 4 5 5 9 6 9 7 12 12 10 13 7 12 12 12 14 22 26 33 35 33 32 31 32 26 16 5 3 7 8 12 15 14 18 17 21 25 27 27 26 29 31 31 30 28 27 24 21
2 4 7 6 4 2 6 12 14 16 5 6 13 11 10 9 11 19 26 32 34 33 33 32 31 29 25 19 12 6 1 3 7 11 13 16 18 21 24 28 28 28 30 31 31 31 29 27 26
5 5 5 8 3 5 5 7 7 5 11 13 11 11 10 10 12 13 22 25 29 33 34 34 30 28 27 22 15 13 9 9 10 5 5 9 13 16 20 23 27 27 28 32 33 33 32 29 30
4 3 6 4 3 3 4 5 6 7 7 6 7 7 8 10 12 13 18 21 26 30 32 34 33 32 28 24 23 23 23 18 16 16 6 5 7 8 11 18 23 26 27 30 32 33 35 31 30
7 2 1 2 3 3 4 1 7 8 3 4 6 9 9 9 10 11 15 20 25 28 29 30 31 32 31 30 26 23 23 21 18 17 13 11 6 7 9 12 15 20 23 24 28 31 34 38 34
3 2 4 2 3 2 5 6 5 5 7 7 7 9 9 7 7 12 16 19 22 22 25 27 29 29 28 28 29 28 25 22 20 19 20 19 16 10 9 10 12 16 18 22 23 28 31 35 40
4 3 3 3 1 5 1 0 7 5 7 14 13 9 7 6 7 7 9 14 17 21 21 23 26 26 24 24 25 24 24 24 25 24 21 19 18 16 14 13 12 14 13 17 22 23 28 32 37
5 5 4 5 3 4 6 5 3 8 15 14 10 8 7 6 6 6 11 15 16 18 20 21 23 24 24 23 23 23 22 21 21 21 21 20 20 19 17 14 13 11 11 15 17 21 24 28 33
3 3 3 3 0 2 4 3 4 7 11 10 9 8 7 6 5 5 10 13 14 16 17 18 20 21 22 22 22 22 20 20 19 18 19 19 20 21 21 19 17 14 14 13 14 20 23 25 28
3 4 3 2 2 4 5 5 4 6 11 9 8 7 6 5 6 5 8 11 11 11 10 11 15 18 19 19 20 19 20 20 20 20 18 18 18 20 22 23 22 20 17 14 15 17 19 24 27
1 2 1 2 4 4 2 5 0 6 11 10 6 7 7 6 6 6 8 10 10 8 7 8 8 10 13 13 15 16 17 19 20 22 23 24 24 23 22 21 22 22 22 19 16 15 19 22 24
5 5 6 3 4 3 1 8 4 6 9 9 8 8 8 7 7 6 8 9 7 6 6 6 6 7 9 9 10 11 12 15 19 20 21 25 26 25 26 27 26 26 23 22 21 17 16 19 23
Wind_Direction
330 334 322 348 50 64 311 359 91 38 33 48 31 91 216 231 210 212 141 167 186 179 179 182 182 179 175 178 182 180 170 170 165 162 156 149 147 135 143 152 143 142 131 106 103 72 97 92 96
344 352 19 71 84 72 298 134 113 156 168 70 315 350 355 309 110 126 147 181 192 183 183 186 186 186 185 184 183 175 167 177 178 160 169 161 157 148 140 149 161 181 209 144 128 105 98 99 101
343 330 70 95 114 143 174 48 92 15 128 113 4 327 237 148 123 150 158 166 181 185 189 191 189 189 189 188 185 180 176 182 179 174 175 179 175 173 166 166 178 182 165 133 146 151 139 164 155
341 16 18 88 233 266 121 62 100 26 61 117 133 314 312 19 136 155 156 166 172 189 190 195 192 194 194 191 189 188 185 186 189 190 190 188 185 197 196 184 190 187 180 163 161 205 240 224 204
318 65 46 357 286 277 73 100 71 1 297 196 143 294 295 42 126 144 163 168 176 189 193 197 198 196 198 199 196 192 189 189 191 197 195 179 187 182 177 182 188 186 181 172 178 224 239 237 203
8 94 46 331 301 300 88 111 76 350 316 219 137 72 339 145 158 154 165 171 181 188 196 200 201 204 203 205 206 204 197 197 200 203 198 191 182 188 184 185 187 186 180 176 191 212 217 154 138
92 74 221 265 286 335 134 162 81 31 350 113 229 117 319 222 176 166 172 173 183 196 203 208 207 207 210 209 210 209 209 209 209 208 203 204 207 193 200 194 190 187 186 182 204 210 174 150 137
98 94 278 273 255 273 184 125 141 93 276 266 41 257 242 213 175 173 175 192 193 201 212 214 212 212 211 211 215 212 215 214 212 212 207 211 215 218 204 200 194 193 187 184 189 182 170 155 150
56 59 258 258 33 331 351 34 347 338 270 328 227 212 250 184 178 182 184 200 206 213 213 216 217 217 221 217 212 215 220 216 217 214 212 214 215 214 223 204 204 198 192 189 190 184 176 160 157
102 123 235 172 126 324 301 81 314 355 314 291 306 293 327 189 197 194 206 215 212 216 219 217 222 223 224 219 218 219 221 219 219 214 211 213 218 225 236 217 211 208 201 196 187 189 176 170 165
189 199 215 299 330 2 295 314 326 314 291 250 264 269 306 205 222 221 230 231 226 231 225 221 223 225 223 217 220 221 221 219 217 214 214 221 227 231 234 220 212 206 209 206 193 198 185 186 184
204 232 240 263 308 316 267 279 297 207 254 249 259 261 276 290 249 233 239 242 238 234 233 228 224 221 220 221 221 221 219 216 214 214 217 218 221 226 222 220 213 211 212 213 212 205 197 201 199
226 248 282 310 302 274 288 254 250 271 264 273 275 279 271 279 266 272 262 251 256 239 236 233 224 223 221 219 220 220 221 219 218 214 216 223 222 220 220 221 220 218 217 218 216 212 209 207 208
326 325 290 279 268 270 253 279 155 274 293 308 305 285 290 294 302 332 325 276 263 249 233 231 225 223 222 219 220 221 223 222 222 226 224 224 223 222 224 220 220 220 221 222 222 217 214 212 211
328 331 316 267 262 234 152 308 231 255 317 299 305 306 321 358 56 28 29 33 25 13 277 236 225 226 220 218 220 221 224 225 226 230 232 228 226 228 225 222 223 226 224 218 217 215 217 216 212
312 63 314 288 18 275 113 251 268 271 288 308 295 317 336 64 46 31 24 29 30 33 32 282 226 225 220 219 220 220 222 228 231 234 232 230 229 227 224 227 231 230 224 220 218 216 215 215 214
309 240 224 311 39 161 188 248 258 281 283 278 291 322 62 52 38 29 28 31 36 36 34 42 222 219 216 217 218 222 224 225 230 235 228 226 228 226 224 228 233 226 222 223 223 221 221 214 212
219 246 291 279 305 341 285 256 263 279 290 276 274 39 67 54 42 32 29 31 42 46 45 44 56 75 203 208 213 214 220 226 230 233 232 224 227 222 225 231 233 225 223 226 227 228 220 222 215
275 239 256 263 277 306 281 302 291 256 263 294 35 101 81 65 50 43 38 36 39 44 49 49 50 53 63 78 170 217 217 216 225 232 241 234 233 231 230 229 228 226 227 229 230 229 226 223 213
306 314 284 287 269 345 296 298 278 299 32 65 96 88 86 81 56 42 37 39 39 36 43 48 49 47 51 55 51 56 110 202 228 233 237 243 247 245 232 233 229 225 224 225 229 230 223 223 206
262 225 247 238 320 298 313 292 284 43 81 79 72 87 77 77 70 52 43 39 41 41 41 45 48 50 48 48 54 53 55 54 42 11 245 245 252 249 242 242 237 233 230 229 230 230 226 219 212
267 260 240 263 58 225 64 284 295 129 100 89 86 77 79 67 63 62 53 45 46 48 52 54 53 50 47 46 50 53 51 41 20 22 346 287 271 258 241 243 245 242 240 234 236 237 229 222 217
223 58 296 222 200 349 278 136 260 129 140 104 87 79 65 65 69 65 58 55 55 50 51 54 54 52 50 49 48 48 43 36 35 33 24 17 348 306 289 270 251 249 250 248 245 239 233 229 230
114 30 298 74 120 298 238 181 280 181 183 136 105 89 84 67 69 76 72 64 60 58 52 52 54 51 48 48 48 47 43 38 31 22 16 11 16 0 322 300 290 273 261 257 254 249 246 244 238
78 69 322 1 16 227 302 193 248 332 112 138 122 105 96 92 75 68 64 63 59 55 55 55 56 55 52 52 51 49 46 43 38 32 23 11 2 354 350 348 310 290 295 276 263 258 251 249 246
184 167 163 237 226 267 328 256 302 74 90 99 101 112 104 89 86 80 70 62 57 50 47 49 51 51 50 51 47 48 49 46 42 31 24 22 13 6 354 334 312 317 306 288 285 273 265 260 256
198 182 171 102 334 46 235 270 84 100 101 111 121 123 126 119 117 110 88 69 62 55 48 42 40 42 41 41 40 39 39 38 38 37 30 21 17 8 5 2 356 332 308 298 294 285 279 273 269
149 170 68 27 212 240 275 261 219 183 150 149 152 140 134 118 93 79 88 87 75 76 60 49 41 37 32 30 29 24 21 19 19 19 15 11 10 8 3 2 359 353 345 329 307 293 286 282 281
65 217 140 149 178 202 240 261 118 123 164 164 156 162 169 159 144 129 115 116 112 103 97 86 70 51 40 31 20 12 11 5 1 354 352 353 353 352 353 353 348 346 342 339 330 317 300 290 284
186 227 186 213 241 252 243 260 134 131 141 147 185 189 183 166 149 143 129 126 123 116 103 86 65 44 32 25 20 10 359 350 345 343 341 338 336 336 335 334 335 334 330 326 323 321 311 298 292